contact: severine.martini@mio.osupytheas.fr, dominique.lefevre@mio.osupytheas.fr
Project:EMSO Ligure-ouest http://www.emso-fr.org/EMSO-France
Sensor Microcat Sea-Bird SBE37 SMP,  Serial 57510 
DOI : "https://doi.org/10.17882/97948" 
Title:EMSO Ligure Ouest : Data Bathybot capteur Microcat - deploiement 2023-04-28
Datetime,Profondeur,Latitude,Longitude,Temperature,Conductivite,Pression,Salinite
time,m,degree_north,degree_east,degree_C,S/m,db,PSU 
2023-10-15T00:00:49,2420,42.8014,5.9826,13.2984,4.59923,2453.544,38.4879
2023-10-15T00:03:49,2420,42.8014,5.9826,13.2976,4.59914,2453.559,38.4877
2023-10-15T00:06:49,2420,42.8014,5.9826,13.2987,4.59917,2453.582,38.4869
2023-10-15T00:09:49,2420,42.8014,5.9826,13.2972,4.59913,2453.582,38.4881
2023-10-15T00:12:49,2420,42.8014,5.9826,13.2971,4.59916,2453.559,38.4884
2023-10-15T00:15:49,2420,42.8014,5.9826,13.2982,4.59920,2453.590,38.4877
2023-10-15T00:18:49,2420,42.8014,5.9826,13.2975,4.59914,2453.559,38.4879
2023-10-15T00:21:49,2420,42.8014,5.9826,13.2982,4.59915,2453.582,38.4873
2023-10-15T00:24:49,2420,42.8014,5.9826,13.2979,4.59914,2453.559,38.4875
2023-10-15T00:27:49,2420,42.8014,5.9826,13.2972,4.59913,2453.559,38.4881
2023-10-15T00:30:49,2420,42.8014,5.9826,13.2970,4.59912,2453.559,38.4882
2023-10-15T00:33:49,2420,42.8014,5.9826,13.2985,4.59919,2453.559,38.4873
2023-10-15T00:36:49,2420,42.8014,5.9826,13.2973,4.59920,2453.559,38.4887
2023-10-15T00:39:49,2420,42.8014,5.9826,13.2974,4.59917,2453.567,38.4883
2023-10-15T00:42:49,2420,42.8014,5.9826,13.2983,4.59928,2453.574,38.4884
2023-10-15T00:45:49,2420,42.8014,5.9826,13.2972,4.59923,2453.559,38.4891
2023-10-15T00:48:49,2420,42.8014,5.9826,13.2991,4.59932,2453.582,38.4880
2023-10-15T00:51:49,2420,42.8014,5.9826,13.2967,4.59915,2453.537,38.4888
2023-10-15T00:54:49,2420,42.8014,5.9826,13.2971,4.59913,2453.559,38.4881
2023-10-15T00:57:49,2420,42.8014,5.9826,13.2982,4.59914,2453.582,38.4872
2023-10-15T01:00:49,2420,42.8014,5.9826,13.2986,4.59913,2453.537,38.4867
2023-10-15T01:03:49,2420,42.8014,5.9826,13.2971,4.59912,2453.544,38.4881
2023-10-15T01:06:49,2420,42.8014,5.9826,13.2983,4.59913,2453.559,38.4870
2023-10-15T01:09:49,2420,42.8014,5.9826,13.2982,4.59914,2453.537,38.4872
2023-10-15T01:12:49,2420,42.8014,5.9826,13.2978,4.59917,2453.559,38.4879
2023-10-15T01:15:49,2420,42.8014,5.9826,13.2985,4.59919,2453.537,38.4874
2023-10-15T01:18:49,2420,42.8014,5.9826,13.2979,4.59913,2453.559,38.4874
2023-10-15T01:21:49,2420,42.8014,5.9826,13.2978,4.59912,2453.559,38.4874
2023-10-15T01:24:49,2420,42.8014,5.9826,13.2973,4.59922,2453.567,38.4888
2023-10-15T01:27:49,2420,42.8014,5.9826,13.2976,4.59913,2453.559,38.4877
2023-10-15T01:30:49,2420,42.8014,5.9826,13.2978,4.59916,2453.559,38.4878
2023-10-15T01:33:49,2420,42.8014,5.9826,13.2977,4.59914,2453.559,38.4877
2023-10-15T01:36:49,2420,42.8014,5.9826,13.2987,4.59913,2453.522,38.4866
2023-10-15T01:39:49,2420,42.8014,5.9826,13.3000,4.59920,2453.551,38.4860
2023-10-15T01:42:49,2420,42.8014,5.9826,13.2973,4.59915,2453.559,38.4881
2023-10-15T01:45:49,2420,42.8014,5.9826,13.2981,4.59916,2453.537,38.4875
2023-10-15T01:48:49,2420,42.8014,5.9826,13.2976,4.59917,2453.499,38.4881
2023-10-15T01:51:49,2420,42.8014,5.9826,13.2985,4.59917,2453.537,38.4872
2023-10-15T01:54:49,2420,42.8014,5.9826,13.2986,4.59913,2453.537,38.4866
2023-10-15T01:57:49,2420,42.8014,5.9826,13.2973,4.59916,2453.537,38.4882
2023-10-15T02:00:49,2420,42.8014,5.9826,13.2975,4.59914,2453.559,38.4880
2023-10-15T02:03:49,2420,42.8014,5.9826,13.2977,4.59917,2453.514,38.4880
2023-10-15T02:06:49,2420,42.8014,5.9826,13.2973,4.59912,2453.528,38.4879
2023-10-15T02:09:49,2420,42.8014,5.9826,13.2975,4.59920,2453.514,38.4885
2023-10-15T02:12:49,2420,42.8014,5.9826,13.2969,4.59918,2453.544,38.4889
2023-10-15T02:15:49,2420,42.8014,5.9826,13.3009,4.59921,2453.537,38.4852
2023-10-15T02:18:49,2420,42.8014,5.9826,13.2977,4.59931,2453.514,38.4894
2023-10-15T02:21:49,2420,42.8014,5.9826,13.2982,4.59915,2453.522,38.4873
2023-10-15T02:24:49,2420,42.8014,5.9826,13.2985,4.59920,2453.528,38.4874
2023-10-15T02:27:49,2420,42.8014,5.9826,13.2996,4.59922,2453.514,38.4866
2023-10-15T02:30:49,2420,42.8014,5.9826,13.2975,4.59916,2453.499,38.4881
2023-10-15T02:33:49,2420,42.8014,5.9826,13.2974,4.59913,2453.528,38.4879
2023-10-15T02:36:49,2420,42.8014,5.9826,13.2978,4.59922,2453.514,38.4883
2023-10-15T02:39:49,2420,42.8014,5.9826,13.2972,4.59921,2453.537,38.4889
2023-10-15T02:42:49,2420,42.8014,5.9826,13.2980,4.59917,2453.551,38.4876
2023-10-15T02:45:49,2420,42.8014,5.9826,13.2976,4.59917,2453.537,38.4881
2023-10-15T02:48:49,2420,42.8014,5.9826,13.2990,4.59916,2453.522,38.4866
2023-10-15T02:51:49,2420,42.8014,5.9826,13.2985,4.59914,2453.559,38.4869
2023-10-15T02:54:49,2420,42.8014,5.9826,13.2977,4.59916,2453.559,38.4879
2023-10-15T02:57:49,2420,42.8014,5.9826,13.2970,4.59919,2453.574,38.4888
2023-10-15T03:00:49,2420,42.8014,5.9826,13.2968,4.59917,2453.559,38.4888
2023-10-15T03:03:49,2420,42.8014,5.9826,13.2991,4.59920,2453.559,38.4868
2023-10-15T03:06:49,2420,42.8014,5.9826,13.2979,4.59929,2453.537,38.4889
2023-10-15T03:09:49,2420,42.8014,5.9826,13.2973,4.59915,2453.559,38.4882
2023-10-15T03:12:49,2420,42.8014,5.9826,13.2990,4.59914,2453.559,38.4863
2023-10-15T03:15:49,2420,42.8014,5.9826,13.2976,4.59917,2453.582,38.4880
2023-10-15T03:18:49,2420,42.8014,5.9826,13.2979,4.59914,2453.544,38.4875
2023-10-15T03:21:49,2420,42.8014,5.9826,13.2973,4.59920,2453.537,38.4887
2023-10-15T03:24:49,2420,42.8014,5.9826,13.2986,4.59927,2453.559,38.4880
2023-10-15T03:27:49,2420,42.8014,5.9826,13.2979,4.59913,2453.604,38.4874
2023-10-15T03:30:49,2420,42.8014,5.9826,13.2982,4.59912,2453.559,38.4870
2023-10-15T03:33:49,2420,42.8014,5.9826,13.2976,4.59914,2453.604,38.4878
2023-10-15T03:36:49,2420,42.8014,5.9826,13.2968,4.59917,2453.596,38.4889
2023-10-15T03:39:49,2420,42.8014,5.9826,13.2991,4.59916,2453.604,38.4864
2023-10-15T03:42:49,2420,42.8014,5.9826,13.2985,4.59918,2453.559,38.4873
2023-10-15T03:45:50,2420,42.8014,5.9826,13.2975,4.59916,2453.582,38.4881
2023-10-15T03:48:49,2420,42.8014,5.9826,13.2984,4.59913,2453.604,38.4869
2023-10-15T03:51:49,2420,42.8014,5.9826,13.2970,4.59921,2453.590,38.4890
2023-10-15T03:54:49,2420,42.8014,5.9826,13.2970,4.59920,2453.582,38.4890
2023-10-15T03:57:49,2420,42.8014,5.9826,13.2989,4.59914,2453.582,38.4865
2023-10-15T04:00:49,2420,42.8014,5.9826,13.2986,4.59922,2453.604,38.4875
2023-10-15T04:03:50,2420,42.8014,5.9826,13.2982,4.59925,2453.627,38.4882
2023-10-15T04:06:49,2420,42.8014,5.9826,13.2989,4.59925,2453.582,38.4875
2023-10-15T04:09:49,2420,42.8014,5.9826,13.2989,4.59915,2453.604,38.4866
2023-10-15T04:12:49,2420,42.8014,5.9826,13.2970,4.59913,2453.582,38.4882
2023-10-15T04:15:49,2420,42.8014,5.9826,13.2973,4.59913,2453.612,38.4880
2023-10-15T04:18:49,2420,42.8014,5.9826,13.2981,4.59913,2453.582,38.4872
2023-10-15T04:21:49,2420,42.8014,5.9826,13.2984,4.59914,2453.627,38.4869
2023-10-15T04:24:49,2420,42.8014,5.9826,13.2984,4.59914,2453.627,38.4870
2023-10-15T04:27:49,2420,42.8014,5.9826,13.2985,4.59924,2453.604,38.4878
2023-10-15T04:30:49,2420,42.8014,5.9826,13.2972,4.59915,2453.649,38.4882
2023-10-15T04:33:49,2420,42.8014,5.9826,13.2975,4.59915,2453.649,38.4879
2023-10-15T04:36:49,2420,42.8014,5.9826,13.2987,4.59933,2453.627,38.4884
2023-10-15T04:39:49,2420,42.8014,5.9826,13.2973,4.59920,2453.649,38.4886
2023-10-15T04:42:49,2420,42.8014,5.9826,13.2983,4.59914,2453.635,38.4870
2023-10-15T04:45:49,2420,42.8014,5.9826,13.2982,4.59920,2453.590,38.4878
2023-10-15T04:48:49,2420,42.8014,5.9826,13.2986,4.59919,2453.604,38.4872
2023-10-15T04:51:49,2420,42.8014,5.9826,13.2972,4.59913,2453.649,38.4880
2023-10-15T04:54:49,2420,42.8014,5.9826,13.2980,4.59914,2453.612,38.4873
2023-10-15T04:57:49,2420,42.8014,5.9826,13.2978,4.59916,2453.672,38.4878
2023-10-15T05:00:49,2420,42.8014,5.9826,13.2981,4.59923,2453.664,38.4880
2023-10-15T05:03:49,2420,42.8014,5.9826,13.2982,4.59915,2453.649,38.4872
2023-10-15T05:06:49,2420,42.8014,5.9826,13.2987,4.59915,2453.672,38.4867
2023-10-15T05:09:49,2420,42.8014,5.9826,13.2993,4.59918,2453.649,38.4865
2023-10-15T05:12:49,2420,42.8014,5.9826,13.2985,4.59914,2453.672,38.4868
2023-10-15T05:15:49,2420,42.8014,5.9826,13.2978,4.59921,2453.672,38.4882
2023-10-15T05:18:49,2420,42.8014,5.9826,13.2991,4.59918,2453.672,38.4866
2023-10-15T05:21:49,2420,42.8014,5.9826,13.2974,4.59923,2453.672,38.4888
2023-10-15T05:24:49,2420,42.8014,5.9826,13.2968,4.59920,2453.709,38.4890
2023-10-15T05:27:49,2420,42.8014,5.9826,13.2983,4.59914,2453.657,38.4870
2023-10-15T05:30:50,2420,42.8014,5.9826,13.2979,4.59917,2453.672,38.4876
2023-10-15T05:33:49,2420,42.8014,5.9826,13.2977,4.59917,2453.672,38.4880
2023-10-15T05:36:49,2420,42.8014,5.9826,13.2976,4.59914,2453.695,38.4877
2023-10-15T05:39:49,2420,42.8014,5.9826,13.2970,4.59916,2453.717,38.4885
2023-10-15T05:42:49,2420,42.8014,5.9826,13.2979,4.59919,2453.680,38.4879
2023-10-15T05:45:49,2420,42.8014,5.9826,13.3001,4.59927,2453.672,38.4864
2023-10-15T05:48:49,2420,42.8014,5.9826,13.2974,4.59913,2453.717,38.4878
2023-10-15T05:51:49,2420,42.8014,5.9826,13.2985,4.59916,2453.732,38.4870
2023-10-15T05:54:49,2420,42.8014,5.9826,13.2970,4.59915,2453.702,38.4885
2023-10-15T05:57:49,2420,42.8014,5.9826,13.2978,4.59914,2453.702,38.4875
2023-10-15T06:00:49,2420,42.8014,5.9826,13.2982,4.59915,2453.695,38.4872
2023-10-15T06:03:49,2420,42.8014,5.9826,13.2986,4.59925,2453.717,38.4878
2023-10-15T06:06:49,2420,42.8014,5.9826,13.2986,4.59923,2453.657,38.4876
2023-10-15T06:09:49,2420,42.8014,5.9826,13.2986,4.59920,2453.732,38.4872
2023-10-15T06:12:49,2420,42.8014,5.9826,13.2975,4.59919,2453.717,38.4883
2023-10-15T06:15:49,2420,42.8014,5.9826,13.2973,4.59918,2453.717,38.4884
2023-10-15T06:18:49,2420,42.8014,5.9826,13.2975,4.59921,2453.717,38.4885
2023-10-15T06:21:49,2420,42.8014,5.9826,13.2986,4.59922,2453.717,38.4875
2023-10-15T06:24:49,2420,42.8014,5.9826,13.2991,4.59920,2453.732,38.4868
2023-10-15T06:27:49,2420,42.8014,5.9826,13.2978,4.59917,2453.740,38.4878
2023-10-15T06:30:50,2420,42.8014,5.9826,13.2973,4.59914,2453.740,38.4879
2023-10-15T06:33:49,2420,42.8014,5.9826,13.2985,4.59920,2453.740,38.4874
2023-10-15T06:36:49,2420,42.8014,5.9826,13.2976,4.59917,2453.717,38.4880
2023-10-15T06:39:49,2420,42.8014,5.9826,13.2970,4.59915,2453.717,38.4885
2023-10-15T06:42:49,2420,42.8014,5.9826,13.2985,4.59917,2453.754,38.4871
2023-10-15T06:45:49,2420,42.8014,5.9826,13.2993,4.59915,2453.762,38.4861
2023-10-15T06:48:49,2420,42.8014,5.9826,13.2975,4.59917,2453.740,38.4882
2023-10-15T06:51:49,2420,42.8014,5.9826,13.2968,4.59917,2453.754,38.4888
2023-10-15T06:54:49,2420,42.8014,5.9826,13.2982,4.59914,2453.740,38.4871
2023-10-15T06:57:49,2420,42.8014,5.9826,13.2979,4.59920,2453.740,38.4879
2023-10-15T07:00:50,2420,42.8014,5.9826,13.2975,4.59916,2453.740,38.4880
2023-10-15T07:03:49,2420,42.8014,5.9826,13.2981,4.59926,2453.717,38.4884
2023-10-15T07:06:49,2420,42.8014,5.9826,13.2985,4.59917,2453.740,38.4872
2023-10-15T07:09:49,2420,42.8014,5.9826,13.2976,4.59914,2453.740,38.4877
2023-10-15T07:12:49,2420,42.8014,5.9826,13.2972,4.59913,2453.717,38.4880
2023-10-15T07:15:49,2420,42.8014,5.9826,13.2970,4.59913,2453.740,38.4882
2023-10-15T07:18:49,2420,42.8014,5.9826,13.2977,4.59926,2453.740,38.4888
2023-10-15T07:21:49,2420,42.8014,5.9826,13.2994,4.59919,2453.725,38.4864
2023-10-15T07:24:49,2420,42.8014,5.9826,13.2975,4.59913,2453.762,38.4877
2023-10-15T07:27:49,2420,42.8014,5.9826,13.2968,4.59915,2453.717,38.4886
2023-10-15T07:30:49,2420,42.8014,5.9826,13.2991,4.59920,2453.762,38.4867
2023-10-15T07:33:49,2420,42.8014,5.9826,13.3002,4.59913,2453.740,38.4850
2023-10-15T07:36:49,2420,42.8014,5.9826,13.2970,4.59917,2453.777,38.4886
2023-10-15T07:39:49,2420,42.8014,5.9826,13.2979,4.59917,2453.762,38.4877
2023-10-15T07:42:49,2420,42.8014,5.9826,13.2974,4.59915,2453.725,38.4880
2023-10-15T07:45:49,2420,42.8014,5.9826,13.2984,4.59916,2453.740,38.4871
2023-10-15T07:48:49,2420,42.8014,5.9826,13.2978,4.59926,2453.717,38.4887
2023-10-15T07:51:49,2420,42.8014,5.9826,13.2974,4.59916,2453.740,38.4881
2023-10-15T07:54:49,2420,42.8014,5.9826,13.2970,4.59913,2453.762,38.4882
2023-10-15T07:57:49,2420,42.8014,5.9826,13.2979,4.59921,2453.762,38.4881
2023-10-15T08:00:49,2420,42.8014,5.9826,13.2973,4.59917,2453.725,38.4883
2023-10-15T08:03:49,2420,42.8014,5.9826,13.2981,4.59915,2453.762,38.4873
2023-10-15T08:06:49,2420,42.8014,5.9826,13.2971,4.59920,2453.740,38.4888
2023-10-15T08:09:49,2420,42.8014,5.9826,13.2984,4.59915,2453.748,38.4870
2023-10-15T08:12:49,2420,42.8014,5.9826,13.2981,4.59917,2453.740,38.4875
2023-10-15T08:15:49,2420,42.8014,5.9826,13.2977,4.59920,2453.717,38.4882
2023-10-15T08:18:49,2420,42.8014,5.9826,13.2983,4.59916,2453.740,38.4872
2023-10-15T08:21:49,2420,42.8014,5.9826,13.2988,4.59923,2453.740,38.4874
2023-10-15T08:24:49,2420,42.8014,5.9826,13.2975,4.59915,2453.725,38.4879
2023-10-15T08:27:49,2420,42.8014,5.9826,13.2997,4.59925,2453.740,38.4866
2023-10-15T08:30:49,2420,42.8014,5.9826,13.2979,4.59922,2453.740,38.4881
2023-10-15T08:33:49,2420,42.8014,5.9826,13.2984,4.59915,2453.717,38.4870
2023-10-15T08:36:49,2420,42.8014,5.9826,13.2973,4.59916,2453.687,38.4882
2023-10-15T08:39:49,2420,42.8014,5.9826,13.2986,4.59915,2453.717,38.4868
2023-10-15T08:42:49,2420,42.8014,5.9826,13.2973,4.59916,2453.717,38.4882
2023-10-15T08:45:49,2420,42.8014,5.9826,13.2971,4.59915,2453.695,38.4882
2023-10-15T08:48:49,2420,42.8014,5.9826,13.2987,4.59921,2453.725,38.4873
2023-10-15T08:51:49,2420,42.8014,5.9826,13.2990,4.59915,2453.695,38.4864
2023-10-15T08:54:49,2420,42.8014,5.9826,13.2983,4.59920,2453.702,38.4875
2023-10-15T08:57:49,2420,42.8014,5.9826,13.2971,4.59915,2453.695,38.4882
2023-10-15T09:00:49,2420,42.8014,5.9826,13.2973,4.59915,2453.717,38.4880
2023-10-15T09:03:49,2420,42.8014,5.9826,13.2976,4.59928,2453.717,38.4891
2023-10-15T09:06:49,2420,42.8014,5.9826,13.2982,4.59916,2453.762,38.4873
2023-10-15T09:09:49,2420,42.8014,5.9826,13.2978,4.59920,2453.717,38.4882
2023-10-15T09:12:49,2420,42.8014,5.9826,13.2982,4.59913,2453.717,38.4870
2023-10-15T09:15:49,2420,42.8014,5.9826,13.2973,4.59913,2453.695,38.4879
2023-10-15T09:18:49,2420,42.8014,5.9826,13.2986,4.59915,2453.717,38.4868
2023-10-15T09:21:49,2420,42.8014,5.9826,13.2993,4.59915,2453.695,38.4861
2023-10-15T09:24:49,2420,42.8014,5.9826,13.3002,4.59915,2453.695,38.4852
2023-10-15T09:27:49,2420,42.8014,5.9826,13.2978,4.59915,2453.717,38.4875
2023-10-15T09:30:49,2420,42.8014,5.9826,13.2970,4.59912,2453.695,38.4881
2023-10-15T09:33:49,2420,42.8014,5.9826,13.2972,4.59913,2453.695,38.4880
2023-10-15T09:36:49,2420,42.8014,5.9826,13.2973,4.59913,2453.680,38.4879
2023-10-15T09:39:49,2420,42.8014,5.9826,13.2973,4.59913,2453.695,38.4879
2023-10-15T09:42:49,2420,42.8014,5.9826,13.2982,4.59914,2453.695,38.4871
2023-10-15T09:45:49,2420,42.8014,5.9826,13.2986,4.59915,2453.695,38.4867
2023-10-15T09:48:49,2420,42.8014,5.9826,13.2970,4.59913,2453.709,38.4882
2023-10-15T09:51:49,2420,42.8014,5.9826,13.2972,4.59913,2453.695,38.4880
2023-10-15T09:54:49,2420,42.8014,5.9826,13.2973,4.59913,2453.672,38.4879
2023-10-15T09:57:49,2420,42.8014,5.9826,13.2979,4.59916,2453.657,38.4876
2023-10-15T10:00:49,2420,42.8014,5.9826,13.2982,4.59914,2453.695,38.4871
2023-10-15T10:03:49,2420,42.8014,5.9826,13.2978,4.59915,2453.672,38.4876
2023-10-15T10:06:49,2420,42.8014,5.9826,13.2982,4.59915,2453.649,38.4872
2023-10-15T10:09:49,2420,42.8014,5.9826,13.2982,4.59914,2453.672,38.4871
2023-10-15T10:12:49,2420,42.8014,5.9826,13.2980,4.59913,2453.672,38.4872
2023-10-15T10:15:49,2420,42.8014,5.9826,13.2985,4.59915,2453.672,38.4870
2023-10-15T10:18:49,2420,42.8014,5.9826,13.2980,4.59914,2453.672,38.4873
2023-10-15T10:21:49,2420,42.8014,5.9826,13.2982,4.59914,2453.672,38.4871
2023-10-15T10:24:49,2420,42.8014,5.9826,13.2982,4.59915,2453.649,38.4872
2023-10-15T10:27:49,2420,42.8014,5.9826,13.2981,4.59920,2453.649,38.4878
2023-10-15T10:30:49,2420,42.8014,5.9826,13.2983,4.59915,2453.657,38.4871
2023-10-15T10:33:49,2420,42.8014,5.9826,13.2975,4.59913,2453.627,38.4878
2023-10-15T10:36:49,2420,42.8014,5.9826,13.2974,4.59913,2453.649,38.4878
2023-10-15T10:39:49,2420,42.8014,5.9826,13.2974,4.59912,2453.649,38.4878
2023-10-15T10:42:49,2420,42.8014,5.9826,13.2978,4.59913,2453.649,38.4875
2023-10-15T10:45:49,2420,42.8014,5.9826,13.2985,4.59914,2453.627,38.4869
2023-10-15T10:48:49,2420,42.8014,5.9826,13.2982,4.59913,2453.627,38.4871
2023-10-15T10:51:49,2420,42.8014,5.9826,13.2982,4.59918,2453.649,38.4876
2023-10-15T10:54:49,2420,42.8014,5.9826,13.2974,4.59914,2453.641,38.4879
2023-10-15T10:57:49,2420,42.8014,5.9826,13.2978,4.59922,2453.627,38.4883
2023-10-15T11:00:49,2420,42.8014,5.9826,13.2980,4.59913,2453.641,38.4872
2023-10-15T11:03:49,2420,42.8014,5.9826,13.2970,4.59913,2453.635,38.4883
2023-10-15T11:06:49,2420,42.8014,5.9826,13.3003,4.59914,2453.604,38.4851
2023-10-15T11:09:49,2420,42.8014,5.9826,13.2991,4.59924,2453.672,38.4872
2023-10-15T11:12:49,2420,42.8014,5.9826,13.2982,4.59918,2453.627,38.4876
2023-10-15T11:15:49,2420,42.8014,5.9826,13.2970,4.59920,2453.627,38.4889
2023-10-15T11:18:49,2420,42.8014,5.9826,13.2985,4.59915,2453.649,38.4869
2023-10-15T11:21:49,2420,42.8014,5.9826,13.2986,4.59916,2453.649,38.4869
2023-10-15T11:24:49,2420,42.8014,5.9826,13.2978,4.59914,2453.604,38.4875
2023-10-15T11:27:49,2420,42.8014,5.9826,13.2972,4.59912,2453.635,38.4880
2023-10-15T11:30:49,2420,42.8014,5.9826,13.2992,4.59916,2453.604,38.4863
2023-10-15T11:33:49,2420,42.8014,5.9826,13.2971,4.59913,2453.590,38.4881
2023-10-15T11:36:49,2420,42.8014,5.9826,13.2980,4.59913,2453.627,38.4872
2023-10-15T11:39:49,2420,42.8014,5.9826,13.2975,4.59912,2453.619,38.4877
2023-10-15T11:42:49,2420,42.8014,5.9826,13.2975,4.59913,2453.619,38.4877
2023-10-15T11:45:49,2420,42.8014,5.9826,13.2979,4.59913,2453.604,38.4873
2023-10-15T11:48:49,2420,42.8014,5.9826,13.2978,4.59913,2453.604,38.4875
2023-10-15T11:51:49,2420,42.8014,5.9826,13.2978,4.59914,2453.619,38.4875
2023-10-15T11:54:49,2420,42.8014,5.9826,13.2967,4.59913,2453.604,38.4885
2023-10-15T11:57:49,2420,42.8014,5.9826,13.2972,4.59913,2453.567,38.4881
2023-10-15T12:00:49,2420,42.8014,5.9826,13.2971,4.59913,2453.604,38.4881
2023-10-15T12:03:49,2420,42.8014,5.9826,13.2970,4.59912,2453.604,38.4882
2023-10-15T12:06:49,2420,42.8014,5.9826,13.2992,4.59913,2453.590,38.4860
2023-10-15T12:09:49,2420,42.8014,5.9826,13.2974,4.59920,2453.559,38.4886
2023-10-15T12:12:49,2420,42.8014,5.9826,13.2970,4.59914,2453.582,38.4883
2023-10-15T12:15:49,2420,42.8014,5.9826,13.2976,4.59913,2453.604,38.4876
2023-10-15T12:18:49,2420,42.8014,5.9826,13.2980,4.59912,2453.559,38.4872
2023-10-15T12:21:49,2420,42.8014,5.9826,13.2974,4.59912,2453.559,38.4878
2023-10-15T12:24:49,2420,42.8014,5.9826,13.2975,4.59913,2453.567,38.4878
2023-10-15T12:27:49,2420,42.8014,5.9826,13.2989,4.59913,2453.567,38.4864
2023-10-15T12:30:49,2420,42.8014,5.9826,13.2985,4.59913,2453.582,38.4868
2023-10-15T12:33:49,2420,42.8014,5.9826,13.2973,4.59913,2453.604,38.4880
2023-10-15T12:36:49,2420,42.8014,5.9826,13.2979,4.59920,2453.559,38.4881
2023-10-15T12:39:49,2420,42.8014,5.9826,13.2982,4.59913,2453.559,38.4871
2023-10-15T12:42:49,2420,42.8014,5.9826,13.2990,4.59913,2453.559,38.4863
2023-10-15T12:45:49,2420,42.8014,5.9826,13.2979,4.59914,2453.582,38.4874
2023-10-15T12:48:49,2420,42.8014,5.9826,13.2972,4.59913,2453.537,38.4881
2023-10-15T12:51:49,2420,42.8014,5.9826,13.2972,4.59917,2453.537,38.4885
2023-10-15T12:54:49,2420,42.8014,5.9826,13.2983,4.59931,2453.559,38.4887
2023-10-15T12:57:49,2420,42.8014,5.9826,13.2981,4.59913,2453.537,38.4872
2023-10-15T13:00:49,2420,42.8014,5.9826,13.2988,4.59918,2453.559,38.4869
2023-10-15T13:03:49,2420,42.8014,5.9826,13.2972,4.59914,2453.582,38.4881
2023-10-15T13:06:49,2420,42.8014,5.9826,13.3008,4.59922,2453.582,38.4854
2023-10-15T13:09:49,2420,42.8014,5.9826,13.2975,4.59924,2453.582,38.4889
2023-10-15T13:12:49,2420,42.8014,5.9826,13.2978,4.59912,2453.559,38.4874
2023-10-15T13:15:49,2420,42.8014,5.9826,13.2990,4.59917,2453.559,38.4866
2023-10-15T13:18:49,2420,42.8014,5.9826,13.2991,4.59920,2453.596,38.4868
2023-10-15T13:21:49,2420,42.8014,5.9826,13.2981,4.59913,2453.559,38.4872
2023-10-15T13:24:49,2420,42.8014,5.9826,13.2969,4.59913,2453.551,38.4884
2023-10-15T13:27:49,2420,42.8014,5.9826,13.2970,4.59912,2453.537,38.4882
2023-10-15T13:30:49,2420,42.8014,5.9826,13.3000,4.59926,2453.582,38.4865
2023-10-15T13:33:49,2420,42.8014,5.9826,13.2976,4.59917,2453.537,38.4881
2023-10-15T13:36:49,2420,42.8014,5.9826,13.2970,4.59914,2453.537,38.4884
2023-10-15T13:39:49,2420,42.8014,5.9826,13.2976,4.59913,2453.567,38.4877
2023-10-15T13:42:49,2420,42.8014,5.9826,13.2981,4.59913,2453.559,38.4872
2023-10-15T13:45:49,2420,42.8014,5.9826,13.2972,4.59921,2453.537,38.4889
2023-10-15T13:48:49,2420,42.8014,5.9826,13.2971,4.59913,2453.559,38.4881
2023-10-15T13:51:49,2420,42.8014,5.9826,13.2974,4.59913,2453.559,38.4879
2023-10-15T13:54:49,2420,42.8014,5.9826,13.2969,4.59913,2453.559,38.4883
2023-10-15T13:57:50,2420,42.8014,5.9826,13.2976,4.59914,2453.537,38.4877
2023-10-15T14:00:49,2420,42.8014,5.9826,13.2989,4.59914,2453.537,38.4864
2023-10-15T14:03:49,2420,42.8014,5.9826,13.2979,4.59913,2453.537,38.4873
2023-10-15T14:06:49,2420,42.8014,5.9826,13.2968,4.59922,2453.559,38.4893
2023-10-15T14:09:49,2420,42.8014,5.9826,13.2971,4.59916,2453.514,38.4884
2023-10-15T14:12:49,2420,42.8014,5.9826,13.2971,4.59912,2453.522,38.4881
2023-10-15T14:15:49,2420,42.8014,5.9826,13.2969,4.59912,2453.499,38.4883
2023-10-15T14:18:49,2420,42.8014,5.9826,13.2976,4.59913,2453.574,38.4877
2023-10-15T14:21:49,2420,42.8014,5.9826,13.2979,4.59921,2453.544,38.4881
2023-10-15T14:24:49,2420,42.8014,5.9826,13.2973,4.59917,2453.582,38.4883
2023-10-15T14:27:50,2420,42.8014,5.9826,13.2979,4.59921,2453.559,38.4882
2023-10-15T14:30:49,2420,42.8014,5.9826,13.2982,4.59918,2453.522,38.4876
2023-10-15T14:33:49,2420,42.8014,5.9826,13.2980,4.59915,2453.522,38.4875
2023-10-15T14:36:49,2420,42.8014,5.9826,13.2978,4.59914,2453.559,38.4877
2023-10-15T14:39:49,2420,42.8014,5.9826,13.2981,4.59920,2453.537,38.4879
2023-10-15T14:42:49,2420,42.8014,5.9826,13.2996,4.59920,2453.559,38.4863
2023-10-15T14:45:49,2420,42.8014,5.9826,13.2978,4.59913,2453.559,38.4874
2023-10-15T14:48:49,2420,42.8014,5.9826,13.2985,4.59915,2453.544,38.4870
2023-10-15T14:51:49,2420,42.8014,5.9826,13.2982,4.59915,2453.567,38.4873
2023-10-15T14:54:49,2420,42.8014,5.9826,13.2983,4.59914,2453.559,38.4871
2023-10-15T14:57:49,2420,42.8014,5.9826,13.2982,4.59917,2453.537,38.4875
2023-10-15T15:00:50,2420,42.8014,5.9826,13.2986,4.59913,2453.537,38.4867
2023-10-15T15:03:49,2420,42.8014,5.9826,13.2996,4.59914,2453.559,38.4859
2023-10-15T15:06:49,2420,42.8014,5.9826,13.2978,4.59914,2453.537,38.4877
2023-10-15T15:09:49,2420,42.8014,5.9826,13.2994,4.59914,2453.559,38.4860
2023-10-15T15:12:49,2420,42.8014,5.9826,13.2979,4.59915,2453.559,38.4875
2023-10-15T15:15:49,2420,42.8014,5.9826,13.2981,4.59914,2453.559,38.4872
2023-10-15T15:18:49,2420,42.8014,5.9826,13.2977,4.59913,2453.604,38.4876
2023-10-15T15:21:49,2420,42.8014,5.9826,13.2969,4.59916,2453.574,38.4886
2023-10-15T15:24:49,2420,42.8014,5.9826,13.2972,4.59915,2453.559,38.4883
2023-10-15T15:27:49,2420,42.8014,5.9826,13.2968,4.59913,2453.582,38.4885
2023-10-15T15:30:49,2420,42.8014,5.9826,13.2982,4.59919,2453.582,38.4877
2023-10-15T15:33:49,2420,42.8014,5.9826,13.2985,4.59913,2453.574,38.4868
2023-10-15T15:36:49,2420,42.8014,5.9826,13.2975,4.59914,2453.582,38.4879
2023-10-15T15:39:49,2420,42.8014,5.9826,13.2991,4.59914,2453.582,38.4863
2023-10-15T15:42:49,2420,42.8014,5.9826,13.2984,4.59917,2453.582,38.4873
2023-10-15T15:45:49,2420,42.8014,5.9826,13.2976,4.59920,2453.559,38.4884
2023-10-15T15:48:49,2420,42.8014,5.9826,13.2978,4.59914,2453.604,38.4875
2023-10-15T15:51:49,2420,42.8014,5.9826,13.2979,4.59913,2453.604,38.4873
2023-10-15T15:54:49,2420,42.8014,5.9826,13.2987,4.59926,2453.582,38.4878
2023-10-15T15:57:49,2420,42.8014,5.9826,13.2997,4.59921,2453.641,38.4863
2023-10-15T16:00:50,2420,42.8014,5.9826,13.2978,4.59917,2453.604,38.4878
2023-10-15T16:03:49,2420,42.8014,5.9826,13.2970,4.59916,2453.604,38.4886